User: anonymous   Login
Location: Unspecified
(0.0000°N, 0.0000°E)
Time: 09:20:44
(UTC+00:00)
Language:

Mublcom - Orbit

View from above orbital plane
View from above orbital plane
View from above satellite
View from above satellite

Ground track
Ground track

The orbit data is extracted from the following two-line orbital elements,

1 25736U 99026B   17328.20002883  .00000304  00000-0  90360-4 0  9992
2 25736  97.7504  34.4400 0004200 242.0792 117.9979 14.49025076976366
Epoch (UTC): 24 November 2017 04:48:02
Eccentricity: 0.0004200
inclination: 97.7504°
perigee height: 726 km
apogee height: 732 km
right ascension of ascending node: 34.4400°
argument of perigee: 242.0792°
revolutions per day: 14.49025076
mean anomaly at epoch: 117.9979°
orbit number at epoch: 97636

The dashed part of the orbit path shows where the satellite is in the earth's shadow,  

DLR